Tracking 25734 objects as of 29-May-2022
HD Live streaming from Space Station
objects crossing your sky now

STARLINK-3097

Track STARLINK-3097 now!
10-day predictions
STARLINK-3097 is classified as:


NORAD ID: 49448
Int'l Code: 2021-104AS
Perigee: 545.2 km
Apogee: 548.4 km
Inclination: 53.2 °
Period: 95.4 minutes
Semi major axis: 6917 km
RCS: Unknown
Launch date: November 13, 2021
Source: United States (US)
Launch site: AIR FORCE EASTERN TEST RANGE (AFETR)
aabbcc
Your satellite tracking list
Your tracking list is empty




NASA's NSSDC Master Catalog

Two Line Element Set (TLE):
1 49448U 21104AS  22148.58334491 -.00017686  00000-0 -10952-2 0  9990
2 49448  53.2155 299.1582 0002295  36.5479 273.1645 15.08858516 31346
Source of the keplerian elements: AFSPC